Skip Navigation Links
NOAA logo - Click to go to the NOAA homepage
NOAA's National Weather Service
Alaska Aviation Weather Unit
  NWS logo - Click to go to the NWS homepage
Left Navbar Graphic     22 AKDT = 06 GMT

   
NOAA is celebrating 200 years of science, service, and stewardship. Visit the NOAA 200th celebration Web site to learn more.
USA.gov is the U.S. Government's official Web portal to all Federal, state and local government Web resources and services.
Facebook
NWS on Facebook

Important Change Regarding the AAWU Web Presence

 

Over the last several months, the AAWU has been working to navigate its webpages to a nationally supported server. Security, as well as other needs, have necessitated the change.  We have been given an extension for the site changeover while we diligently work at addressing feedback received. As of July 14, 2017, aawu.arh.noaa.gov will be discontinued. The new AAWU web address is weather.gov/aawu. It is now live and will run in-parallel with the old site until it is discontinued on July 14, 2017. Please continue to send any feedback or questions regarding the new webpages to nws.ar.aawu.webauthors@noaa.gov.  Thank you for your patience during this time of transition.
AAWU Home :: Display TAF Add Bookmark
TAF PAFA 260534Z 2606/2712 VRB04KT P6SM VCSH SCT035 BKN050
      BKN100=

PAFA 260023Z VRB03KT 10SM SCT030 BKN040 OVC110 18/12 A2988= SPECI PAFA 260023Z VRB03KT 10SM SCT030 BKN040 OVC110 18/12 A2988 RMK AO2 T01830122= METAR PAFA 260053Z 12005KT 10SM SCT030 BKN040 BKN110 18/13 A2987= METAR PAFA 260153Z 09004KT 10SM SCT035 BKN085 BKN110 18/13 A2986= METAR PAFA 260253Z 10005KT 10SM SCT040 SCT085 BKN110 18/13 A2985= METAR PAFA 260353Z 12005KT 10SM SCT040 SCT085 BKN110 18/12 A2984= METAR PAFA 260453Z 13003KT 10SM FEW040 FEW085 BKN110 18/13 A2984= METAR PAFA 260553Z 00000KT 10SM FEW035 SCT085 BKN110 18/13 A2983=
 Alaska TAF Map

NOAA's National Weather Service
Alaska Aviation Weather Unit
6930 Sand Lake Road
Anchorage, AK 99502-1845
Disclaimer
Credits
Glossary
Privacy Policy
About Us
Career Opportunities
Contact AAWU Internet Services Site last modified: April, 17th 2012